Kokomo, IN

12:33 PM EST on November 20, 2019 (GMT -0500)
Kokomo Municipal

Weather History for KOKK - October, 2019

Change the Weather History Date:

Monday, October 21, 2019

  Actual Average (KGUS) Record (KGUS)
Temperature  
Mean Temperature 58 °F -  
Max Temperature 64 °F 58 °F 79 °F (2015)
Min Temperature 52 °F 41 °F 30 °F (2018)
Degree Days  
Heating Degree Days 7    
Growing Degree Days 8 (Base 50)    
Moisture  
Dew Point 56 °F    
Average Humidity 89    
Maximum Humidity 100    
Minimum Humidity 72    
Precipitation  
Precipitation 0.44 in - - ()
Sea Level Pressure  
Sea Level Pressure 29.70 in    
Wind  
Wind Speed 13 mph (SSE)    
Max Wind Speed 26 mph    
Max Gust Speed 33 mph    
Visibility 10 miles    
Events Rain    
Averages and records for this station are not official NWS values.
T = Trace of Precipitation, MM = Missing Value Source: NWS Daily Summary

Daily Weather History Graph

Daily Weather History Graph

Search for Another Location

Airport or City:

Astronomy

Oct. 21, 2019 Rise Set
Actual Time 7:01 AM CDT 5:55 PM CDT
Civil Twilight 6:33 AM CDT 6:23 PM CDT
Nautical Twilight 6:02 AM CDT 6:55 PM CDT
Astronomical Twilight 5:30 AM CDT 7:26 PM CDT
Moon No Moon Rise 2:19 PM CDT (10/21)
Length of Visible Light 11h 49m
Length of Day
10h 54m
Waning Gibbous, 48% of the Moon is Illuminated
Oct 21
Waning Gibbous
Oct 27
New
Nov 4
First Quarter
Nov 12
Full
Nov 19
Last Quarter

Hourly Weather History & Observations

Time (CDT) Temp. Dew Point Humidity Pressure Visibility Wind Dir Wind Speed Gust Speed Precip Events Conditions
12:56 AM 57.0 °F 48.0 °F 72% 29.88 in 10.0 mi East 6.9 mph - N/A   Overcast
1:56 AM 55.0 °F 46.9 °F 74% 29.85 in 10.0 mi ESE 10.4 mph - N/A   Scattered Clouds
2:56 AM 52.0 °F 46.9 °F 83% 29.86 in 10.0 mi SE 4.6 mph - N/A   Mostly Cloudy
3:56 AM 55.0 °F 50.0 °F 83% 29.85 in 10.0 mi SE 6.9 mph - N/A   Overcast
4:56 AM 57.0 °F 52.0 °F 83% 29.83 in 10.0 mi SE 10.4 mph - N/A   Overcast
5:56 AM 55.9 °F 53.1 °F 90% 29.79 in 10.0 mi ESE 10.4 mph - N/A   Mostly Cloudy
6:56 AM 55.9 °F 54.0 °F 93% 29.78 in 10.0 mi ESE 9.2 mph - N/A   Overcast
7:56 AM 57.0 °F 55.0 °F 93% 29.77 in 10.0 mi SE 12.7 mph - N/A   Clear
8:56 AM 57.0 °F 55.9 °F 96% 29.74 in 10.0 mi SE 16.1 mph - 0.00 in Rain Light Rain
9:32 AM 57.2 °F 57.2 °F 100% 29.73 in 6.0 mi SE 20.7 mph 27.6 mph 0.11 in Rain Rain
9:56 AM 57.9 °F 57.9 °F 100% 29.70 in 5.0 mi SE 23.0 mph 31.1 mph 0.20 in Rain Light Rain
10:56 AM 59.0 °F 59.0 °F 100% 29.68 in 8.0 mi SE 24.2 mph 31.1 mph 0.02 in Rain Light Rain
11:56 AM 60.1 °F 59.0 °F 96% 29.66 in 8.0 mi SSE 21.9 mph 31.1 mph 0.07 in Rain Rain
12:56 PM 61.0 °F 60.1 °F 97% 29.58 in 10.0 mi SE 26.5 mph 33.4 mph 0.13 in Rain Light Rain
1:36 PM 62.6 °F 60.8 °F 94% 29.61 in 10.0 mi SSE 20.7 mph 29.9 mph 0.00 in   Overcast
1:56 PM 62.1 °F 61.0 °F 96% 29.60 in 10.0 mi SSE 16.1 mph - 0.00 in   Overcast
2:42 PM 62.6 °F 60.8 °F 94% 29.62 in 10.0 mi South 17.3 mph 27.6 mph N/A   Overcast
2:56 PM 63.0 °F 61.0 °F 93% 29.60 in 10.0 mi South 17.3 mph - N/A   Overcast
3:38 PM 62.6 °F 62.6 °F 100% 29.61 in 10.0 mi South 12.7 mph - 0.00 in Rain Light Rain
3:56 PM 64.0 °F 62.1 °F 93% 29.60 in 10.0 mi South 17.3 mph 31.1 mph 0.00 in   Overcast
4:01 PM 64.4 °F 62.6 °F 94% 29.60 in 10.0 mi South 16.1 mph - N/A   Overcast
4:56 PM 64.0 °F 59.0 °F 84% 29.60 in 10.0 mi SSW 12.7 mph - N/A   Overcast
5:56 PM 64.0 °F 59.0 °F 84% 29.61 in 10.0 mi SSW 18.4 mph - N/A   Overcast
6:56 PM 63.0 °F 57.9 °F 84% 29.63 in 10.0 mi SSW 13.8 mph 24.2 mph 0.01 in   Scattered Clouds
7:56 PM 63.0 °F 57.9 °F 84% 29.65 in 10.0 mi SSW 15.0 mph 23.0 mph N/A   Clear
8:56 PM 61.0 °F 57.0 °F 87% 29.65 in 10.0 mi SSW 11.5 mph - N/A   Clear
9:35 PM 55.4 °F 48.2 °F 77% 29.70 in 10.0 mi West 23.0 mph 29.9 mph 0.00 in Rain Light Rain
9:56 PM 54.0 °F 48.9 °F 83% 29.70 in 10.0 mi WSW 10.4 mph - 0.01 in   Overcast
10:56 PM 53.1 °F 48.9 °F 86% 29.72 in 10.0 mi WSW 6.9 mph - N/A   Overcast
11:56 PM 52.0 °F 48.0 °F 86% 29.72 in 10.0 mi South 8.1 mph - 0.00 in   Overcast